Temp
70 68 65 63 62 62 60 59 58 58 57 57 57 55 55 52 52 52 52 53 53 53 53 54 50 49 46 47 47 45 44 42 39 45 46 49 48 48 50 49 51 49 52
66 63 61 60 60 59 58 57 57 55 56 55 55 54 53 51 50 49 50 50 50 49 50 50 47 50 44 44 43 42 44 44 39 39 44 46 46 48 46 47 50 53 49
61 59 58 58 57 57 56 56 56 55 54 51 51 50 48 47 48 48 50 50 50 48 48 46 45 44 41 41 41 41 40 44 44 44 45 49 44 45 47 47 47 47 50
59 57 56 57 56 55 55 55 54 53 50 49 48 48 49 47 47 48 49 47 48 47 47 47 46 44 42 41 42 40 43 41 43 46 46 43 44 46 46 45 42 45 44
57 57 56 55 55 55 54 54 51 50 49 49 48 46 45 45 46 43 44 44 45 45 45 47 46 49 50 48 43 41 42 42 40 40 40 41 43 42 39 40 39 40 42
55 54 55 55 55 54 54 50 49 48 46 46 44 43 41 46 45 47 45 43 45 44 43 43 44 45 45 47 48 48 45 39 35 34 38 39 39 38 40 39 39 37 36
54 55 55 54 53 53 52 50 47 45 44 43 41 41 40 41 45 46 48 43 43 42 41 41 44 45 42 41 43 44 43 43 43 40 36 36 35 39 37 37 37 37 37
54 54 54 53 52 52 51 48 45 44 43 42 41 39 40 44 45 45 46 40 43 46 44 40 38 37 40 40 38 37 37 38 39 42 39 39 40 39 39 38 37 38 39
52 53 54 54 53 52 48 46 46 44 43 41 41 40 39 39 44 43 42 40 41 41 42 41 39 38 42 42 38 37 36 38 43 44 43 41 41 41 41 38 35 34 34
52 53 55 54 52 48 47 46 45 45 43 44 41 39 44 37 43 43 41 39 38 39 40 39 44 40 42 41 36 34 36 37 37 39 40 40 40 40 41 38 36 33 34
54 53 52 51 49 48 47 47 46 44 43 40 38 37 37 39 39 42 43 39 37 39 39 39 39 41 41 41 41 35 36 39 39 39 37 37 38 38 38 39 38 36 34
52 51 50 50 51 49 48 46 45 44 41 37 35 34 35 35 42 41 41 41 43 38 37 38 39 40 40 41 40 41 41 41 37 37 35 34 34 35 37 38 39 39 39
50 49 46 45 45 45 43 41 42 42 41 37 36 33 33 34 34 40 40 41 42 37 39 43 42 41 41 39 42 41 41 39 37 34 33 33 35 37 38 38 39 41 42
41 40 41 41 41 42 41 39 41 42 40 37 35 32 32 33 34 34 36 35 41 40 40 40 42 41 41 39 38 38 37 39 36 34 34 35 37 36 36 37 36 38 38
42 42 41 41 40 38 38 39 40 34 40 36 32 33 34 34 35 37 36 36 35 39 38 35 34 32 33 35 35 35 35 35 35 35 34 34 34 35 35 36 37 36 36
44 43 41 41 41 40 39 35 39 39 39 39 38 38 36 38 38 40 41 40 41 40 36 32 30 30 32 32 32 31 32 33 32 34 34 34 34 34 34 36 36 35 35
43 43 42 41 39 37 34 36 35 36 40 39 39 39 39 39 40 41 41 39 39 39 32 30 30 31 31 31 30 29 28 30 31 32 33 33 34 34 34 35 35 35 35
44 42 40 39 37 33 34 33 35 36 33 34 38 39 40 40 40 40 40 40 36 36 32 30 30 30 30 30 29 28 29 30 29 30 32 33 33 33 34 34 35 34 34
43 41 41 40 38 36 34 34 34 35 35 34 36 39 38 40 39 39 39 35 33 32 31 31 30 29 30 29 29 29 28 28 27 27 30 32 33 32 34 35 35 34 34
44 42 41 41 40 37 36 36 35 35 35 34 34 34 36 36 35 34 35 35 33 31 31 30 30 29 29 28 28 28 28 28 27 26 29 31 32 33 35 35 35 33 34
43 42 39 42 41 39 37 36 35 35 34 34 34 35 33 35 33 33 33 33 33 32 30 30 28 29 29 28 27 27 27 27 26 26 28 30 32 32 35 35 35 35 34
43 43 45 44 43 42 39 37 37 35 35 35 34 35 34 34 34 33 34 34 33 32 32 30 28 28 27 27 27 27 26 26 26 27 28 30 32 34 36 34 34 34 34
44 45 44 43 41 38 38 36 36 35 35 35 35 36 36 34 33 33 34 33 33 32 31 30 28 28 28 28 27 27 24 25 26 27 28 30 33 35 36 34 34 33 34
46 45 42 41 41 39 37 36 35 35 36 35 35 35 34 34 33 34 33 33 33 31 30 30 29 28 28 28 28 28 28 28 28 29 30 31 32 34 35 35 34 33 34
44 43 43 42 42 40 39 37 36 36 37 36 34 34 33 34 34 34 33 33 32 31 29 29 28 28 28 28 28 28 29 30 29 31 31 33 33 34 34 35 36 34 35
43 44 40 40 38 38 38 37 35 36 35 35 33 32 32 32 32 33 33 32 31 30 29 28 28 28 28 28 29 29 29 29 29 31 32 33 33 33 34 35 35 35 34
MSLP
1003.97 1005.34 1006.85 1008.01 1009.18 1010.32 1011.20 1012.11 1012.91 1013.75 1014.38 1014.82 1015.33 1015.73 1016.27 1016.78 1016.92 1017.15 1017.54 1017.76 1017.87 1017.82 1017.71 1017.53 1017.68 1017.93 1018.05 1017.93 1017.85 1017.81 1017.83 1017.90 1017.69 1016.48 1015.94 1015.06 1014.34 1013.59 1012.67 1012.04 1011.46 1010.89 1010.27
1004.68 1006.22 1007.85 1008.95 1009.68 1010.69 1011.85 1012.59 1013.04 1013.85 1014.64 1015.10 1015.77 1016.33 1017.17 1017.47 1017.88 1018.10 1018.08 1018.17 1017.97 1018.09 1018.03 1018.18 1018.53 1018.48 1018.51 1018.36 1018.25 1018.17 1018.16 1018.02 1017.89 1016.95 1015.81 1014.90 1014.35 1013.43 1012.75 1012.16 1011.49 1010.65 1010.28
1005.37 1006.99 1008.56 1009.79 1010.73 1011.39 1011.99 1012.91 1013.99 1014.62 1015.15 1015.88 1016.54 1017.21 1018.00 1018.49 1018.49 1018.57 1018.63 1018.66 1018.42 1018.54 1018.74 1019.06 1019.21 1018.97 1018.87 1018.80 1018.73 1018.67 1018.49 1018.01 1017.63 1017.07 1015.79 1014.83 1014.33 1013.53 1012.77 1012.11 1011.55 1010.75 1010.24
1006.62 1007.63 1008.63 1009.85 1010.85 1011.71 1012.71 1013.96 1015.03 1015.83 1016.21 1016.71 1017.27 1017.94 1018.37 1018.70 1019.12 1019.36 1019.30 1019.22 1018.95 1019.01 1019.29 1019.57 1019.67 1019.41 1019.29 1019.16 1019.11 1018.95 1018.49 1018.00 1017.45 1016.69 1015.83 1015.12 1014.54 1013.71 1013.24 1012.57 1011.38 1011.04 1010.30
1007.27 1008.61 1009.43 1010.07 1010.93 1011.62 1013.61 1014.78 1016.06 1016.45 1017.12 1017.63 1017.99 1018.36 1018.68 1019.16 1019.41 1019.43 1019.49 1019.59 1019.49 1019.65 1019.83 1020.13 1020.10 1019.89 1019.69 1019.33 1019.23 1019.04 1018.65 1018.31 1017.76 1017.14 1016.30 1015.66 1014.72 1013.87 1013.50 1013.14 1012.56 1011.38 1010.27
1009.51 1008.47 1009.44 1011.11 1010.85 1012.24 1014.15 1015.93 1017.10 1017.32 1017.91 1018.55 1019.18 1019.45 1019.35 1019.37 1019.36 1019.37 1019.65 1019.99 1019.95 1020.23 1020.60 1020.58 1020.36 1020.29 1020.19 1019.79 1019.39 1019.20 1019.20 1018.65 1018.27 1017.67 1016.72 1016.02 1015.31 1014.82 1014.04 1013.63 1012.86 1012.02 1011.15
1009.35 1010.20 1009.82 1011.26 1011.98 1014.25 1015.69 1016.66 1017.53 1018.15 1018.96 1019.61 1020.35 1020.17 1019.76 1019.69 1019.61 1019.54 1019.82 1020.10 1020.60 1020.91 1020.98 1021.07 1020.92 1020.85 1020.48 1020.00 1019.68 1019.51 1019.36 1019.07 1018.47 1017.73 1017.14 1016.52 1015.74 1015.28 1014.75 1013.69 1013.31 1012.79 1012.01
1010.55 1011.34 1011.06 1011.90 1013.85 1015.69 1016.49 1017.13 1018.05 1018.88 1019.63 1020.57 1020.92 1020.61 1020.23 1020.23 1019.99 1020.05 1020.35 1020.56 1020.89 1021.27 1021.21 1021.23 1021.39 1021.16 1020.69 1020.25 1019.97 1019.78 1019.52 1018.97 1018.37 1017.81 1017.27 1016.68 1016.10 1015.55 1015.04 1014.37 1013.72 1012.96 1011.88
1011.75 1012.13 1012.57 1013.63 1014.61 1015.79 1016.97 1017.76 1018.73 1019.52 1020.45 1021.17 1021.41 1021.29 1020.66 1020.69 1020.40 1020.61 1021.07 1021.19 1021.33 1021.78 1021.82 1021.44 1021.55 1021.25 1020.93 1020.42 1020.26 1020.06 1019.58 1018.83 1018.21 1017.55 1017.13 1016.54 1015.92 1015.41 1014.89 1014.35 1013.74 1013.23 1012.30
1012.05 1012.81 1013.61 1013.79 1014.99 1016.26 1017.44 1018.70 1019.33 1019.85 1020.75 1021.42 1022.05 1021.72 1021.24 1021.36 1021.24 1021.67 1021.72 1021.63 1021.71 1021.89 1021.66 1021.66 1021.58 1021.41 1020.90 1020.51 1020.54 1020.55 1019.78 1018.81 1018.08 1017.38 1016.83 1016.31 1015.58 1015.25 1014.84 1014.58 1014.17 1013.65 1013.11
1012.60 1013.48 1014.11 1015.32 1016.14 1016.86 1018.03 1018.40 1019.42 1020.52 1021.18 1022.09 1022.19 1022.15 1022.04 1022.13 1022.14 1022.33 1022.25 1021.63 1021.83 1021.90 1022.13 1022.11 1021.74 1021.43 1021.06 1020.87 1020.83 1020.54 1020.06 1019.16 1018.49 1017.74 1017.00 1016.53 1016.02 1015.33 1014.69 1014.35 1014.08 1013.70 1013.10
1013.47 1014.49 1015.53 1016.35 1017.10 1018.15 1018.49 1019.31 1020.13 1020.82 1021.60 1022.69 1022.86 1023.07 1022.39 1023.39 1023.07 1023.00 1022.36 1021.84 1021.87 1022.26 1022.70 1022.25 1021.61 1021.53 1021.50 1021.40 1021.15 1020.75 1020.13 1019.33 1018.73 1018.22 1017.52 1016.91 1016.25 1015.67 1014.74 1014.05 1013.53 1012.97 1012.51
1015.02 1016.24 1017.14 1017.89 1018.57 1018.73 1019.36 1019.90 1020.72 1021.44 1022.19 1023.00 1023.16 1023.47 1024.19 1024.00 1023.69 1022.96 1022.37 1022.09 1022.28 1022.74 1022.63 1022.11 1022.03 1022.06 1021.94 1021.78 1021.56 1020.95 1020.17 1019.58 1019.24 1018.66 1018.04 1017.58 1016.97 1016.02 1015.06 1014.06 1013.25 1012.46 1011.45
1016.26 1017.11 1018.24 1018.66 1018.92 1019.71 1020.09 1020.76 1020.81 1022.12 1022.47 1023.28 1023.80 1024.89 1024.41 1024.14 1023.65 1022.93 1022.74 1022.73 1022.99 1022.97 1022.79 1022.69 1022.67 1022.70 1022.53 1022.54 1022.06 1021.51 1020.89 1020.35 1019.98 1019.33 1018.61 1018.07 1017.04 1016.10 1015.21 1014.55 1013.63 1012.62 1011.55
1017.09 1018.00 1018.57 1019.44 1019.88 1020.50 1021.22 1021.62 1021.78 1022.42 1022.61 1023.13 1025.00 1024.36 1024.35 1024.20 1023.93 1023.42 1023.35 1023.45 1023.51 1023.49 1023.60 1023.71 1023.63 1023.51 1023.35 1023.13 1022.79 1022.26 1021.57 1020.94 1020.29 1019.57 1018.84 1017.94 1017.09 1016.34 1015.70 1014.85 1014.07 1013.17 1012.37
1017.70 1018.81 1019.39 1019.97 1020.83 1021.50 1021.84 1022.76 1022.60 1022.77 1023.46 1024.47 1024.31 1023.98 1024.23 1023.77 1023.61 1023.21 1023.51 1023.67 1023.72 1023.97 1024.40 1024.73 1024.74 1024.62 1024.35 1024.00 1023.63 1023.06 1022.31 1021.68 1021.03 1020.19 1019.44 1018.42 1017.50 1016.77 1016.02 1015.08 1014.40 1013.67 1012.67
1017.96 1018.98 1019.71 1020.16 1021.25 1021.88 1022.34 1022.65 1023.99 1024.54 1024.44 1024.75 1024.39 1024.22 1024.24 1024.09 1023.74 1023.89 1024.13 1024.21 1024.47 1024.69 1025.35 1025.53 1025.55 1025.45 1025.16 1024.78 1024.29 1023.90 1023.32 1022.49 1021.67 1020.86 1019.95 1019.11 1018.05 1017.31 1016.38 1015.45 1014.72 1013.94 1012.80
1018.38 1019.25 1020.18 1021.17 1021.81 1022.39 1023.05 1023.47 1023.98 1024.67 1025.18 1024.79 1024.77 1024.66 1024.25 1024.21 1024.57 1024.63 1024.56 1024.72 1025.60 1025.83 1026.07 1026.30 1026.24 1026.06 1025.72 1025.34 1024.92 1024.59 1023.95 1023.17 1022.21 1021.39 1020.35 1019.62 1018.60 1017.81 1016.75 1015.90 1015.18 1014.47 1013.46
1019.03 1019.95 1020.87 1021.88 1022.44 1022.75 1023.45 1024.15 1024.55 1024.89 1024.95 1025.23 1025.21 1024.93 1025.11 1025.17 1025.26 1025.24 1025.37 1025.97 1026.55 1026.82 1026.77 1026.77 1026.70 1026.47 1026.22 1025.91 1025.56 1025.11 1024.48 1023.76 1023.04 1022.17 1021.15 1020.16 1019.13 1018.26 1017.24 1016.40 1015.60 1014.84 1013.90
1019.89 1020.62 1021.54 1022.25 1022.90 1023.31 1023.71 1024.12 1024.80 1025.22 1025.25 1025.51 1025.74 1026.03 1026.23 1025.99 1026.12 1026.41 1026.63 1026.87 1027.05 1027.19 1027.15 1027.13 1026.97 1026.77 1026.54 1026.37 1026.13 1025.72 1024.99 1024.14 1023.47 1022.69 1021.81 1020.84 1019.77 1018.85 1017.69 1016.77 1015.93 1015.10 1014.26
1020.14 1020.71 1021.44 1022.13 1022.82 1023.19 1023.47 1024.24 1024.95 1025.17 1025.63 1026.10 1026.57 1026.38 1026.21 1026.59 1027.07 1027.28 1027.39 1027.43 1027.46 1027.57 1027.67 1027.61 1027.59 1027.31 1027.05 1026.79 1026.57 1026.08 1025.51 1024.86 1024.10 1023.26 1022.38 1021.37 1020.43 1019.26 1018.24 1017.31 1016.53 1015.69 1014.85
1019.90 1020.31 1020.78 1021.93 1022.67 1023.37 1023.93 1024.49 1025.04 1025.34 1026.02 1026.63 1026.77 1026.73 1026.70 1027.17 1027.52 1027.72 1027.72 1027.91 1028.08 1028.01 1028.02 1028.10 1028.12 1027.91 1027.57 1027.35 1027.01 1026.67 1026.04 1025.44 1024.68 1023.84 1022.85 1021.77 1020.91 1019.82 1018.81 1017.83 1016.97 1016.20 1015.33
1019.80 1020.07 1021.21 1022.29 1023.21 1023.84 1024.27 1024.74 1025.42 1025.99 1026.38 1026.68 1026.84 1027.12 1027.49 1027.84 1027.92 1027.97 1028.12 1028.35 1028.44 1028.62 1028.78 1028.61 1028.52 1028.37 1028.13 1027.76 1027.35 1027.03 1026.61 1025.96 1025.25 1024.46 1023.37 1022.26 1021.33 1020.36 1019.43 1018.55 1017.66 1016.83 1016.02
1020.53 1021.22 1021.87 1022.82 1023.55 1024.08 1024.56 1025.33 1025.87 1026.25 1026.73 1026.95 1027.31 1027.57 1027.82 1028.03 1028.14 1028.31 1028.54 1028.68 1028.90 1029.19 1029.15 1029.03 1028.88 1028.79 1028.71 1028.19 1027.78 1027.25 1026.61 1026.05 1025.28 1024.41 1023.60 1022.76 1021.90 1021.00 1020.15 1019.39 1018.51 1017.80 1016.99
1021.19 1021.75 1022.21 1022.89 1023.69 1024.33 1025.14 1025.80 1026.23 1026.76 1027.13 1027.36 1027.75 1027.88 1028.20 1028.42 1028.51 1028.69 1028.86 1029.03 1029.41 1029.63 1029.70 1029.43 1029.17 1029.18 1028.88 1028.55 1028.15 1027.57 1026.79 1026.05 1025.39 1024.61 1023.75 1023.03 1022.37 1021.61 1020.86 1020.23 1019.43 1018.67 1017.77
1021.58 1022.06 1022.65 1023.35 1024.24 1024.77 1025.33 1026.05 1026.81 1027.15 1027.46 1027.88 1028.05 1028.15 1028.54 1028.92 1028.99 1029.04 1029.27 1029.49 1029.86 1030.11 1030.23 1030.08 1029.87 1029.68 1029.38 1028.92 1028.42 1027.89 1027.21 1026.48 1025.78 1025.01 1024.27 1023.65 1022.97 1022.24 1021.49 1020.85 1020.29 1019.60 1018.93
Wind_Speed
15 14 14 13 15 14 13 12 13 12 11 11 10 10 10 8 7 7 6 6 5 5 6 8 9 8 5 5 4 3 3 2 3 6 5 8 8 8 9 6 7 6 8
15 16 15 15 15 14 14 14 13 13 11 12 11 11 9 8 7 6 6 5 5 7 7 10 8 6 6 5 4 5 4 4 2 9 6 5 6 9 6 9 8 7 6
18 17 16 15 14 15 15 14 12 12 12 11 11 11 8 6 6 6 5 5 8 8 8 8 5 6 5 4 5 6 4 5 5 6 9 7 4 5 11 7 7 9 8
17 17 18 17 17 16 15 13 12 12 12 12 10 9 8 8 7 6 6 6 7 7 6 6 6 6 7 6 5 5 6 6 6 5 7 6 6 8 6 10 12 8 10
17 16 16 16 17 19 15 14 12 13 11 10 11 10 7 6 4 4 5 6 7 7 8 5 7 12 15 11 4 6 8 7 6 7 7 7 8 10 10 7 8 10 11
6 17 16 17 18 17 15 14 13 12 12 12 10 8 6 4 6 6 6 5 7 7 6 5 5 8 10 14 16 16 12 8 6 4 5 8 10 10 10 9 8 7 7
16 12 16 17 18 15 15 14 13 13 11 10 7 7 8 7 12 10 9 5 6 5 6 5 4 5 7 6 11 12 11 13 11 7 8 8 10 10 10 11 9 8 7
13 13 15 17 17 14 14 14 13 10 11 8 7 7 8 8 14 13 12 7 7 4 6 5 3 5 6 7 6 6 6 7 8 7 7 8 8 9 8 8 10 10 9
15 14 15 16 17 15 14 12 11 11 9 7 6 7 9 8 14 13 7 6 6 6 5 5 3 4 6 8 6 9 8 7 11 16 13 13 13 14 13 6 6 7 5
14 15 14 15 15 15 14 12 7 9 10 7 7 6 12 8 13 10 6 4 6 3 4 3 3 4 8 10 6 6 12 11 10 11 9 10 11 11 14 6 6 7 5
14 14 15 13 13 12 10 10 10 10 9 7 6 6 7 8 9 12 10 6 4 4 4 3 3 3 6 9 10 6 7 10 13 10 9 8 9 8 7 7 7 6 6
16 16 14 11 9 8 11 9 10 11 10 6 6 4 6 6 9 10 12 12 8 5 4 3 3 3 7 10 10 15 11 12 8 9 9 9 10 10 10 9 10 8 7
16 14 11 10 8 8 9 8 7 8 7 4 5 5 3 3 4 11 12 12 11 4 3 9 13 11 11 8 13 16 13 9 8 8 9 8 8 10 12 10 9 10 10
14 12 9 10 11 10 7 5 8 7 6 5 5 3 2 3 4 6 6 6 9 8 9 8 10 11 11 10 8 10 7 9 8 8 8 8 8 9 8 9 9 10 9
13 11 11 9 10 10 9 5 7 4 6 7 4 4 5 4 3 5 3 4 4 6 6 5 5 5 7 8 7 8 8 8 9 9 8 9 9 9 9 9 8 9 7
13 9 8 9 8 8 9 8 15 11 11 7 6 5 2 4 7 10 14 14 15 11 5 5 5 5 6 7 8 8 8 12 10 9 9 9 10 11 10 10 9 8 9
11 10 8 9 7 7 5 9 9 5 10 9 8 8 10 5 13 13 14 16 13 9 5 4 4 6 6 7 7 7 8 8 9 9 9 10 10 10 12 10 10 10 10
11 14 8 7 7 6 6 6 6 6 5 3 6 6 11 14 13 13 14 11 6 6 4 4 4 4 6 6 7 7 8 8 9 9 10 10 10 11 10 11 10 11 11
9 7 7 7 6 7 5 5 5 5 5 4 3 7 9 12 13 13 11 5 4 4 4 5 4 4 5 6 6 7 7 8 8 8 9 10 11 10 10 11 10 14 12
8 12 8 7 7 6 5 5 5 4 5 5 5 3 2 5 5 5 5 4 4 4 4 4 4 4 5 6 6 7 8 8 9 8 9 10 11 10 11 12 11 11 11
7 8 10 7 6 5 5 6 5 5 5 5 3 2 5 6 5 4 3 4 4 4 4 5 4 5 5 6 6 7 8 8 8 9 9 9 11 11 11 10 9 10 10
7 9 10 9 8 7 6 6 6 6 6 5 4 4 9 5 5 4 5 5 4 4 4 4 4 5 5 6 6 7 8 8 9 10 10 10 10 10 11 11 10 11 10
7 9 9 7 6 7 6 5 6 5 5 5 5 5 5 4 4 4 5 4 5 5 4 4 4 5 6 6 6 5 6 8 8 8 10 10 10 11 9 12 11 11 12
8 8 9 7 7 6 6 6 5 6 5 6 5 5 5 5 5 5 5 5 5 4 4 4 5 7 7 8 7 7 7 8 7 8 11 9 10 11 9 11 11 12 11
8 8 9 8 9 8 8 7 7 6 6 6 5 5 5 5 5 5 5 5 5 5 5 5 5 7 8 11 12 14 14 16 12 13 9 10 12 13 10 8 12 11 13
8 9 7 7 7 8 8 8 7 7 7 6 5 5 5 5 4 5 5 6 5 4 4 4 7 10 10 9 12 15 16 17 15 16 10 9 10 10 11 7 13 12 13
Wind_Direction
135 130 119 110 111 117 115 117 115 115 109 102 95 86 77 65 50 59 64 49 49 40 24 44 60 45 35 23 13 14 14 352 296 314 287 301 305 307 315 310 308 299 324
121 116 112 117 118 118 122 116 111 109 104 97 92 83 76 68 58 64 62 46 49 54 56 62 53 43 30 9 4 2 349 324 285 292 300 302 301 311 304 311 317 317 325
115 115 114 112 118 117 109 105 105 105 95 82 81 77 71 61 60 53 54 51 66 61 69 69 54 39 20 358 3 357 327 313 302 287 299 307 290 304 326 313 316 321 326
115 117 117 124 120 113 108 107 104 98 91 86 81 86 71 57 44 38 41 51 66 63 70 68 48 31 20 7 359 326 320 305 299 310 314 316 322 328 325 335 331 335 325
116 119 122 116 110 109 108 101 100 90 90 88 81 68 65 69 64 68 56 60 73 63 50 70 45 36 29 24 10 349 352 340 343 331 320 320 324 335 340 330 324 326 332
333 86 119 124 98 102 103 102 98 91 81 78 73 76 70 70 56 76 86 64 64 66 63 49 53 34 18 21 12 13 8 355 340 311 306 331 332 326 335 329 332 345 340
114 128 111 107 101 107 108 108 98 94 94 82 71 66 57 42 42 61 90 74 84 86 74 57 32 21 14 360 360 3 5 1 354 341 333 332 325 338 323 328 337 328 311
111 112 104 106 113 115 108 103 101 99 93 93 80 61 64 49 50 50 52 58 101 105 76 70 47 26 18 12 356 343 326 335 345 349 337 329 327 325 322 323 313 310 304
121 115 113 120 119 110 101 108 109 113 105 85 78 70 66 48 51 50 52 73 85 55 68 36 75 71 20 14 13 5 347 339 344 348 344 339 336 335 337 333 339 334 323
116 115 115 101 106 111 115 124 116 108 105 98 78 58 64 48 39 44 60 87 71 28 31 16 42 83 35 19 17 346 357 348 341 345 347 343 350 339 342 343 318 316 316
108 103 100 101 108 113 121 113 114 109 104 94 79 53 55 50 40 39 52 70 77 55 25 353 343 61 21 14 1 346 340 342 346 348 349 347 343 339 339 335 316 295 296
100 98 101 106 113 121 122 116 114 111 102 99 85 62 43 24 43 35 42 50 50 60 2 321 2 117 2 359 353 348 344 1 355 352 352 351 345 338 335 333 319 302 269
103 101 89 87 86 84 95 98 93 110 110 98 74 67 57 10 13 31 34 40 44 56 9 43 42 37 16 3 352 353 0 7 357 354 356 343 335 325 323 329 327 314 304
97 90 91 89 83 75 71 78 96 119 109 101 92 113 98 37 14 25 31 38 38 43 33 32 32 30 20 0 359 357 357 6 359 348 346 333 332 340 340 342 333 335 325
100 99 92 91 91 82 64 55 95 55 122 122 169 140 91 48 3 360 23 53 58 53 46 30 23 4 12 8 3 357 355 360 357 353 346 349 348 345 340 340 336 331 330
113 112 109 104 102 102 103 87 48 74 96 119 138 108 54 78 23 49 60 71 66 56 45 37 20 9 15 7 1 354 358 359 354 349 345 348 352 346 335 341 339 338 329
110 113 108 103 108 113 99 106 114 44 70 67 61 61 51 47 64 69 70 70 59 57 54 32 27 16 8 5 359 354 347 347 341 349 351 344 347 344 337 344 342 337 332
111 111 109 114 118 114 121 112 109 118 124 61 16 39 42 52 68 72 65 66 47 34 48 40 24 13 10 7 359 351 342 345 351 348 351 345 344 342 341 346 344 336 331
112 110 116 129 128 116 108 107 107 108 99 97 39 33 28 58 73 66 61 75 81 55 41 38 21 15 13 4 355 347 342 344 345 343 346 343 341 343 341 343 340 337 329
143 141 136 134 137 129 120 111 107 116 95 83 78 84 22 59 62 52 49 67 74 69 56 46 24 21 20 10 354 347 345 351 348 348 343 338 336 338 343 341 344 338 337
146 143 136 130 139 140 124 122 126 113 103 93 95 101 106 101 94 95 87 68 83 76 61 48 23 20 18 14 0 355 352 346 345 343 338 337 335 336 347 342 340 341 338
128 124 117 127 127 125 124 131 128 108 108 107 93 73 86 84 96 102 84 74 74 71 61 62 43 28 22 13 2 355 351 347 343 340 334 337 335 332 350 349 349 351 348
103 110 111 118 122 121 108 105 100 109 111 109 104 91 82 84 85 85 86 90 82 63 35 44 42 30 15 6 1 346 344 340 328 320 331 335 339 343 351 354 352 355 356
115 111 112 118 129 122 119 120 113 97 110 106 102 98 95 83 76 87 91 88 83 67 49 42 46 42 17 12 359 353 351 344 335 334 335 337 343 343 342 3 2 356 2
113 117 119 122 123 122 117 111 106 105 102 100 99 93 87 76 68 76 88 86 90 79 61 49 44 32 22 11 2 355 352 355 355 348 344 350 350 350 348 358 8 7 13
120 122 114 112 111 114 114 110 109 111 105 105 104 92 91 88 74 80 87 83 90 82 64 47 43 33 18 9 3 359 357 358 357 354 354 357 357 357 353 355 7 15 12